• In Deutschland
  • Länderverzeichnis
  • Für 7 Tage
  • Wassertemperatur
  • Satellitenkarten
  • Wetterkarte
  • Widgets
  • user-avatar
    Anmelden

    Stündliche Wetter Constantine

    Heute, 25 Mai, Freitag

    Zeit Temperatur Niederschläge Wind Luftdruck Luftfeuchtigkeit
    00:00 +22°C° 0 mm 1 m/S 709 mmHg 64%
    01:00 +22°C° 0 mm 1 m/S 709 mmHg 63%
    02:00 +22°C° 0 mm 1 m/S 709 mmHg 62%
    03:00 +21°C° 0 mm 1 m/S 709 mmHg 61%
    04:00 +22°C° 0 mm 1 m/S 709 mmHg 58%
    05:00 +23°C° 0 mm 2 m/S 709 mmHg 56%
    06:00 +25°C° 0 mm 2 m/S 709 mmHg 53%
    07:00 +27°C° 0 mm 2 m/S 709 mmHg 46%
    08:00 +29°C° 0 mm 2 m/S 710 mmHg 39%
    09:00 +31°C° 0 mm 3 m/S 710 mmHg 32%
    10:00 +33°C° 0 mm 3 m/S 710 mmHg 29%
    11:00 +34°C° 0 mm 3 m/S 710 mmHg 26%
    12:00 +35°C° 0 mm 3 m/S 710 mmHg 22%
    13:00 +35°C° 0 mm 3 m/S 710 mmHg 23%
    14:00 +35°C° 0 mm 3 m/S 710 mmHg 24%
    15:00 +35°C° 0 mm 3 m/S 709 mmHg 24%
    16:00 +33°C° 0 mm 3 m/S 709 mmHg 32%
    17:00 +31°C° 0 mm 2 m/S 709 mmHg 40%
    18:00 +29°C° 0 mm 2 m/S 709 mmHg 48%
    19:00 +27°C° 0 mm 2 m/S 709 mmHg 53%
    20:00 +26°C° 0 mm 1 m/S 709 mmHg 57%
    21:00 +24°C° 0 mm 1 m/S 709 mmHg 61%
    22:00 +24°C° 0 mm 1 m/S 709 mmHg 61%
    23:00 +23°C° 0 mm 1 m/S 708 mmHg 61%

    Morgen, 26 Mai, Samstag

    Zeit Temperatur Niederschläge Wind Luftdruck Luftfeuchtigkeit
    00:00 +23°C° 0 mm 1 m/S 708 mmHg 60%
    01:00 +22°C° 0 mm 1 m/S 708 mmHg 61%
    02:00 +22°C° 0 mm 1 m/S 708 mmHg 61%
    03:00 +21°C° 0 mm 1 m/S 708 mmHg 62%
    04:00 +22°C° 0 mm 1 m/S 709 mmHg 59%
    05:00 +24°C° 0 mm 1 m/S 709 mmHg 56%
    06:00 +25°C° 0 mm 1 m/S 709 mmHg 53%
    07:00 +27°C° 0 mm 2 m/S 710 mmHg 45%
    08:00 +30°C° 0 mm 3 m/S 710 mmHg 37%
    09:00 +33°C° 0 mm 4 m/S 711 mmHg 29%
    10:00 +34°C° 0 mm 4 m/S 711 mmHg 26%
    11:00 +36°C° 0 mm 5 m/S 711 mmHg 22%
    12:00 +37°C° 0 mm 5 m/S 711 mmHg 19%
    13:00 +37°C° 0 mm 5 m/S 710 mmHg 20%
    14:00 +37°C° 0 mm 5 m/S 710 mmHg 21%
    15:00 +36°C° 0 mm 4 m/S 710 mmHg 22%
    16:00 +34°C° 0 mm 4 m/S 710 mmHg 28%
    17:00 +31°C° 0 mm 3 m/S 709 mmHg 34%
    18:00 +29°C° 0 mm 2 m/S 709 mmHg 41%
    19:00 +29°C° 0 mm 2 m/S 709 mmHg 39%
    20:00 +28°C° 0 mm 3 m/S 710 mmHg 38%
    21:00 +27°C° 0 mm 3 m/S 710 mmHg 37%
    22:00 +27°C° 0 mm 3 m/S 710 mmHg 36%
    23:00 +27°C° 0 mm 4 m/S 710 mmHg 36%

    übermorgen, 27 Mai, Sonntag

    Zeit Temperatur Niederschläge Wind Luftdruck Luftfeuchtigkeit
    00:00 +27°C° 0 mm 4 m/S 710 mmHg 35%
    01:00 +26°C° 0 mm 3 m/S 710 mmHg 38%
    02:00 +26°C° 0 mm 2 m/S 710 mmHg 41%
    03:00 +25°C° 0 mm 1 m/S 709 mmHg 43%
    04:00 +26°C° 0 mm 1 m/S 710 mmHg 44%
    05:00 +26°C° 0 mm 2 m/S 710 mmHg 45%
    06:00 +26°C° 0 mm 2 m/S 710 mmHg 45%
    07:00 +28°C° 0 mm 2 m/S 710 mmHg 39%
    08:00 +30°C° 0 mm 3 m/S 711 mmHg 33%
    09:00 +33°C° 0 mm 3 m/S 711 mmHg 27%
    10:00 +34°C° 0 mm 3 m/S 711 mmHg 26%
    11:00 +35°C° 0 mm 3 m/S 711 mmHg 24%
    12:00 +36°C° 0 mm 3 m/S 711 mmHg 22%
    13:00 +36°C° 0 mm 3 m/S 711 mmHg 23%
    14:00 +36°C° 0 mm 3 m/S 710 mmHg 24%
    15:00 +36°C° 0 mm 3 m/S 710 mmHg 25%
    16:00 +34°C° 0 mm 3 m/S 710 mmHg 32%
    17:00 +31°C° 0 mm 2 m/S 710 mmHg 40%
    18:00 +30°C° 0 mm 2 m/S 710 mmHg 47%
    19:00 +28°C° 0,1 mm 2 m/S 710 mmHg 54%
    20:00 +26°C° 0,1 mm 2 m/S 710 mmHg 61%
    21:00 +24°C° 0,1 mm 2 m/S 710 mmHg 68%
    22:00 +23°C° 0,1 mm 2 m/S 710 mmHg 68%
    23:00 +23°C° 0,1 mm 2 m/S 710 mmHg 68%

    28 Mai, Montag

    Zeit Temperatur Niederschläge Wind Luftdruck Luftfeuchtigkeit
    00:00 +21°C° 0,1 mm 2 m/S 709 mmHg 68%
    01:00 +22°C° 0,1 mm 1 m/S 709 mmHg 70%
    02:00 +22°C° 0,1 mm 1 m/S 708 mmHg 71%
    03:00 +21°C° 0,1 mm 1 m/S 708 mmHg 72%
    04:00 +22°C° 0,2 mm 1 m/S 708 mmHg 69%
    05:00 +23°C° 0,2 mm 2 m/S 708 mmHg 65%
    06:00 +23°C° 0,2 mm 2 m/S 708 mmHg 61%
    07:00 +26°C° 0,3 mm 3 m/S 708 mmHg 52%
    08:00 +29°C° 0,3 mm 4 m/S 708 mmHg 44%
    09:00 +32°C° 0,3 mm 5 m/S 709 mmHg 35%
    10:00 +34°C° 0 mm 5 m/S 708 mmHg 32%
    11:00 +35°C° 0 mm 6 m/S 708 mmHg 29%
    12:00 +38°C° 0 mm 6 m/S 708 mmHg 26%
    13:00 +36°C° 0 mm 6 m/S 708 mmHg 29%
    14:00 +35°C° 0 mm 6 m/S 707 mmHg 32%
    15:00 +35°C° 0 mm 6 m/S 707 mmHg 35%
    16:00 +33°C° 0 mm 5 m/S 706 mmHg 42%
    17:00 +30°C° 0 mm 5 m/S 706 mmHg 49%
    18:00 +28°C° 0 mm 4 m/S 706 mmHg 55%
    19:00 +27°C° 0 mm 4 m/S 706 mmHg 61%
    20:00 +25°C° 0 mm 4 m/S 706 mmHg 66%
    21:00 +22°C° 0 mm 4 m/S 706 mmHg 72%
    22:00 +22°C° 0 mm 3 m/S 706 mmHg 75%
    23:00 +21°C° 0 mm 3 m/S 707 mmHg 78%

    29 Mai, Dienstag

    Zeit Temperatur Niederschläge Wind Luftdruck Luftfeuchtigkeit
    00:00 +20°C° 0 mm 2 m/S 707 mmHg 82%
    01:00 +19°C° 0 mm 2 m/S 706 mmHg 85%
    02:00 +19°C° 0 mm 2 m/S 706 mmHg 87%
    03:00 +18°C° 0 mm 2 m/S 706 mmHg 90%
    04:00 +18°C° 0 mm 2 m/S 706 mmHg 89%
    05:00 +18°C° 0 mm 2 m/S 707 mmHg 88%
    06:00 +18°C° 0 mm 2 m/S 707 mmHg 87%
    07:00 +19°C° 0 mm 2 m/S 707 mmHg 83%
    08:00 +20°C° 0 mm 2 m/S 707 mmHg 79%
    09:00 +20°C° 0 mm 2 m/S 708 mmHg 76%
    10:00 +21°C° 0 mm 2 m/S 708 mmHg 73%
    11:00 +23°C° 0 mm 2 m/S 708 mmHg 70%
    12:00 +24°C° 0 mm 2 m/S 708 mmHg 67%
    13:00 +24°C° 0 mm 3 m/S 708 mmHg 66%
    14:00 +25°C° 0 mm 3 m/S 707 mmHg 65%
    15:00 +25°C° 0 mm 4 m/S 707 mmHg 64%
    16:00 +24°C° 0 mm 3 m/S 707 mmHg 67%
    17:00 +22°C° 0 mm 3 m/S 707 mmHg 71%
    18:00 +22°C° 0 mm 3 m/S 707 mmHg 74%
    19:00 +20°C° 0 mm 2 m/S 708 mmHg 79%
    20:00 +19°C° 0 mm 2 m/S 708 mmHg 84%
    21:00 +19°C° 0 mm 1 m/S 708 mmHg 88%
    22:00 +19°C° 0 mm 1 m/S 708 mmHg 89%
    23:00 +19°C° 0 mm 1 m/S 708 mmHg 90%

    30 Mai, Mittwoch

    Zeit Temperatur Niederschläge Wind Luftdruck Luftfeuchtigkeit
    00:00 +19°C° 0 mm 1 m/S 708 mmHg 90%
    01:00 +18°C° 0 mm 1 m/S 708 mmHg 91%
    02:00 +18°C° 0 mm 1 m/S 707 mmHg 92%
    03:00 +16°C° 0 mm 1 m/S 707 mmHg 93%
    04:00 +18°C° 0 mm 1 m/S 707 mmHg 90%
    05:00 +19°C° 0 mm 1 m/S 708 mmHg 87%
    06:00 +19°C° 0 mm 1 m/S 708 mmHg 83%
    07:00 +21°C° 0 mm 1 m/S 708 mmHg 72%
    08:00 +23°C° 0 mm 2 m/S 708 mmHg 61%
    09:00 +25°C° 0 mm 2 m/S 709 mmHg 50%
    10:00 +26°C° 0 mm 3 m/S 709 mmHg 46%
    11:00 +27°C° 0 mm 3 m/S 709 mmHg 42%
    12:00 +28°C° 0 mm 4 m/S 709 mmHg 39%
    13:00 +28°C° 0 mm 4 m/S 709 mmHg 41%
    14:00 +27°C° 0 mm 5 m/S 709 mmHg 44%
    15:00 +27°C° 0 mm 5 m/S 709 mmHg 46%
    16:00 +25°C° 0 mm 4 m/S 709 mmHg 52%
    17:00 +23°C° 0 mm 4 m/S 709 mmHg 58%
    18:00 +21°C° 0 mm 4 m/S 709 mmHg 64%
    19:00 +20°C° 0,4 mm 3 m/S 709 mmHg 69%
    20:00 +18°C° 0,4 mm 2 m/S 709 mmHg 75%
    21:00 +17°C° 0,4 mm 2 m/S 709 mmHg 81%
    22:00 +18°C° 0,2 mm 1 m/S 709 mmHg 82%
    23:00 +16°C° 0,2 mm 1 m/S 709 mmHg 83%
    Mehr zeigen